WD6AWP Weather Reports


time (UTC)temp
C
wind
direction
speed
KPH
gust
KPH
rain 1hr
cm
rain 24hr
cm
rain mn
cm
humidity
%
barometer
mb
20260904063036 18 269 0.0 0.0 0.00 0.00 0.00 86 1012.0
20260904061532 19 269 0.0 0.0 0.00 0.00 0.00 86 1012.0
20260904060032 20 269 0.0 0.0 0.00 0.00 0.00 85 1012.0
20260904054531 20 269 0.0 0.0 0.00 0.00 0.00 86 1011.9
20260904053031 20 269 0.0 6.4 0.00 0.00 0.00 86 1012.0
20260904051529 20 269 4.8 9.7 0.00 0.00 0.00 86 1012.2
20260904050030 20 269 0.0 0.0 0.00 0.00 0.00 86 1012.2
20260904044532 20 269 0.0 0.0 0.00 0.00 0.00 86 1012.0
20260904043029 20 269 0.0 0.0 0.00 0.00 0.00 85 1011.9
20260904041528 20 269 0.0 0.0 0.00 0.00 0.00 85 1011.8
20260904040028 21 269 0.0 6.4 0.00 0.00 0.00 85 1011.8
20260904034534 21 272 4.8 11.3 0.00 0.00 0.00 86 1011.6
20260904033027 21 285 0.0 11.3 0.00 0.00 0.00 85 1011.5
20260904031526 21 275 6.4 14.5 0.00 0.00 0.00 84 1011.3
20260904030026 21 275 9.7 17.7 0.00 0.00 0.00 84 1011.2
20260904024526 21 282 9.7 17.7 0.00 0.00 0.00 83 1011.2
20260904023025 21 255 9.7 19.3 0.00 0.00 0.00 83 1011.3
20260904021527 21 284 11.3 20.9 0.00 0.00 0.00 82 1011.3
20260904020020 21 274 9.7 19.3 0.00 0.00 0.00 81 1011.4
20260904014518 22 263 9.7 20.9 0.00 0.00 0.00 80 1011.4
20260904013016 22 236 11.3 20.9 0.00 0.00 0.00 79 1011.5
20260904011518 22 259 8.0 22.5 0.00 0.00 0.00 78 1011.6
20260904010016 23 259 11.3 19.3 0.00 0.00 0.00 76 1011.5
20260904004510 23 263 9.7 19.3 0.00 0.00 0.00 75 1011.5
20260904003012 24 259 11.3 22.5 0.00 0.00 0.00 75 1011.6
20260904001506 24 239 11.3 25.7 0.00 0.00 0.00 75 1011.5
20260904000006 24 284 12.9 22.5 0.00 0.00 0.00 75 1011.6
20260903234504 25 246 11.3 22.5 0.00 0.00 0.00 74 1011.7
20260903233002 25 272 9.7 19.3 0.00 0.00 0.00 74 1011.9
20260903231502 25 229 9.7 19.3 0.00 0.00 0.00 74 1011.9
20260903224615 26 265 12.9 22.5 0.00 0.00 0.00 72 1012.1
20260903223058 26 236 9.7 17.7 0.00 0.00 0.00 72 1012.2
20260903221556 26 248 8.0 20.9 0.00 0.00 0.00 72 1012.4
20260903220055 26 236 6.4 17.7 0.00 0.00 0.00 71 1012.4
20260903214607 26 200 6.4 20.9 0.00 0.00 0.00 72 1012.6
20260903213100 26 218 9.7 22.5 0.00 0.00 0.00 72 1012.7
20260903211547 25 238 8.0 20.9 0.00 0.00 0.00 74 1012.7
20260903210118 26 238 8.0 22.5 0.00 0.00 0.00 74 1012.6
20260903204549 25 259 11.3 20.9 0.00 0.00 0.00 73 1012.8
20260903203103 25 196 8.0 20.9 0.00 0.00 0.00 74 1013.0
20260903201544 26 194 6.4 16.1 0.00 0.00 0.00 73 1013.1
20260903200045 25 236 9.7 20.9 0.00 0.00 0.00 74 1013.3
20260903194537 25 196 11.3 16.1 0.00 0.00 0.00 73 1013.3
20260903193035 25 289 6.4 19.3 0.00 0.00 0.00 75 1013.5
20260903191536 25 203 6.4 16.1 0.00 0.00 0.00 74 1013.7
20260903190034 25 244 6.4 17.7 0.00 0.00 0.00 75 1013.9
20260903184532 25 202 4.8 16.1 0.00 0.00 0.00 74 1014.1
20260903183029 25 221 4.8 16.1 0.00 0.00 0.00 75 1014.3
20260903181528 25 182 8.0 16.1 0.00 0.00 0.00 76 1014.4
20260903180027 25 234 4.8 12.9 0.00 0.00 0.00 74 1014.3
20260903174530 24 213 3.2 11.3 0.00 0.00 0.00 75 1014.3
20260903173024 24 275 1.6 9.7 0.00 0.00 0.00 74 1014.3
20260903171520 24 206 3.2 8.0 0.00 0.00 0.00 74 1014.5
20260903170016 23 244 1.6 11.3 0.00 0.00 0.00 74 1014.4
20260903164512 23 217 0.0 8.0 0.00 0.00 0.00 76 1014.4
20260903163011 23 232 3.2 8.0 0.00 0.00 0.00 76 1014.3
20260903161511 23 329 0.0 4.8 0.00 0.00 0.00 77 1014.3
20260903160006 23 64 0.0 0.0 0.00 0.00 0.00 78 1014.3
20260903154502 22 64 0.0 0.0 0.00 0.00 0.00 81 1014.3
20260903153058 21 58 0.0 0.0 0.00 0.00 0.00 83 1014.2
20260903151554 20 48 0.0 0.0 0.00 0.00 0.00 85 1014.3
20260903150051 20 48 0.0 0.0 0.00 0.00 0.00 86 1014.3
20260903144547 18 48 0.0 0.0 0.00 0.00 0.00 88 1014.4
20260903143102 18 48 0.0 0.0 0.00 0.00 0.00 88 1014.1
20260903141558 17 48 0.0 0.0 0.00 0.00 0.00 90 1013.9
20260903140046 17 47 0.0 0.0 0.00 0.00 0.00 90 1013.7
20260903134548 17 47 0.0 0.0 0.00 0.00 0.00 91 1013.5
20260903133045 17 47 0.0 3.2 0.00 0.00 0.00 92 1013.5
20260903131545 17 278 0.0 0.0 0.00 0.00 0.00 92 1013.4
20260903130042 17 278 0.0 0.0 0.00 0.00 0.00 92 1013.5
20260903124544 16 278 0.0 0.0 0.00 0.00 0.00 92 1013.5
20260903123041 17 278 0.0 0.0 0.00 0.00 0.00 92 1013.5
20260903121540 17 278 0.0 0.0 0.00 0.00 0.00 92 1013.4
20260903120039 17 278 0.0 0.0 0.00 0.00 0.00 92 1013.5
20260903114544 17 278 0.0 0.0 0.00 0.00 0.00 91 1013.6
20260903113036 17 278 0.0 0.0 0.00 0.00 0.00 92 1013.8
20260903111540 17 278 0.0 0.0 0.00 0.00 0.00 92 1013.8
20260903110040 17 278 0.0 0.0 0.00 0.00 0.00 92 1013.8
20260903104538 17 278 0.0 0.0 0.00 0.00 0.00 91 1013.9
20260903103035 17 278 0.0 0.0 0.00 0.00 0.00 91 1014.0
20260903101537 17 278 0.0 0.0 0.00 0.00 0.00 91 1014.1
20260903100029 17 278 0.0 0.0 0.00 0.00 0.00 92 1014.0
20260903094528 17 278 0.0 3.2 0.00 0.00 0.00 92 1014.1
20260903093026 17 278 0.0 0.0 0.00 0.00 0.00 91 1014.2
20260903091524 17 278 0.0 0.0 0.00 0.00 0.00 91 1014.3
20260903090022 17 278 0.0 0.0 0.00 0.00 0.00 91 1014.5
20260903084520 17 278 0.0 0.0 0.00 0.00 0.00 90 1014.6
20260903083033 17 278 0.0 0.0 0.00 0.00 0.00 90 1014.6
20260903081529 17 278 0.0 0.0 0.00 0.00 0.00 89 1014.7
20260903080017 18 278 0.0 0.0 0.00 0.00 0.00 89 1014.7
20260903074516 18 278 0.0 0.0 0.00 0.00 0.00 88 1014.8
20260903073017 18 278 0.0 0.0 0.00 0.00 0.00 87 1014.7
20260903071510 18 278 0.0 0.0 0.00 0.00 0.00 87 1014.7
20260903070008 18 278 0.0 0.0 0.00 0.00 0.00 86 1014.6
20260903064509 19 278 0.0 0.0 0.00 0.00 0.00 86 1014.7